{"data":{"norad_id":67986,"epoch":"2026-05-24T21:29:25.741248Z","epoch_age_seconds":80079,"freshness":"FRESH","line1":"1 67986U 26039A   26144.89543682  .00014097  00000+0  52054-3 0  9997","line2":"2 67986  43.0016 338.9492 0001140 263.6859  96.3863 15.27598848 13359","mean_motion":15.27598848,"eccentricity":0.000114,"inclination_deg":43.0016,"raan_deg":338.9492,"arg_perigee_deg":263.6859,"mean_anomaly_deg":96.3863,"bstar":0.00052054,"rev_number":1335,"period_min":94.265585620552,"perigee_km":482.21049014629,"apogee_km":483.77482770853,"semimajor_km":6861.1296589274,"source":"CELESTRAK","updated_at":"2026-05-25T13:38:21.778549Z"}}